Temp
22 23 22 23 29 31 29 29 29 28 28 28 28 28 27 24 25 25 21 21 21 21 21 21 22 21 22 22 23 23 22 22 22 22 21 21 21 21 21 21 21 21 21 21 21 21 21 21 21
22 22 22 26 30 30 29 29 28 28 28 28 27 27 26 24 23 22 22 21 22 22 21 21 22 22 21 22 22 22 21 21 21 21 21 21 21 21 21 21 21 21 21 21 21 21 21 21 21
23 24 28 29 30 30 30 29 27 28 29 28 27 26 25 23 22 22 22 21 21 22 22 21 22 22 21 21 21 21 21 21 21 21 21 21 21 21 21 21 21 21 21 21 21 21 21 21 21
24 26 28 31 30 30 30 28 28 28 28 27 27 25 25 23 22 22 21 21 22 22 22 21 21 21 21 22 22 21 21 21 21 21 21 22 21 21 21 21 21 21 21 21 21 21 21 21 21
26 28 32 30 30 30 30 29 29 28 27 27 27 25 24 23 22 22 21 22 22 22 21 22 21 21 21 21 21 21 21 21 21 21 21 21 21 21 21 21 21 21 21 21 21 21 21 21 21
30 30 31 30 30 29 29 29 29 28 27 26 26 26 23 22 22 21 22 22 21 22 22 22 21 21 21 21 21 21 21 21 21 21 21 21 21 21 21 21 21 21 21 21 21 20 20 20 21
31 32 31 30 30 29 29 29 29 28 27 27 27 25 23 23 23 22 22 22 22 22 22 22 22 21 21 21 21 21 21 21 22 21 21 21 21 22 22 21 21 21 21 21 20 20 20 20 21
31 33 32 31 31 30 29 29 29 29 27 28 28 26 24 23 22 22 21 21 21 21 22 21 21 22 22 22 21 21 21 21 21 21 21 21 21 21 21 21 21 21 21 21 20 20 20 20 21
31 33 32 32 32 30 30 29 29 29 28 27 27 27 26 23 22 22 21 21 21 21 22 22 22 22 22 22 22 21 21 21 21 21 21 21 22 22 22 22 22 22 21 21 20 20 20 20 21
33 33 33 33 32 30 30 29 29 28 27 25 25 25 24 23 23 22 22 22 22 22 22 22 22 22 21 22 21 21 21 22 21 21 21 22 22 22 22 22 22 21 21 21 20 20 20 21 21
33 34 33 32 32 31 30 29 29 29 28 27 24 25 24 24 23 22 23 22 24 23 23 22 21 21 21 21 21 21 22 21 21 21 21 22 22 22 21 21 21 21 21 21 21 21 22 21 21
35 34 33 31 30 30 30 30 29 29 28 28 26 26 25 24 24 24 24 23 23 22 22 22 21 21 21 22 22 21 21 21 21 21 21 21 21 21 22 21 21 20 21 21 20 21 21 21 21
35 34 32 31 31 31 30 29 29 27 27 26 26 25 25 26 25 24 24 24 23 23 22 22 21 21 23 22 22 21 22 21 21 21 21 21 21 21 21 21 21 21 20 20 20 20 21 21 21
34 33 32 32 31 31 30 29 30 27 27 26 26 26 26 26 25 25 24 24 23 23 23 23 21 21 22 22 22 21 22 21 21 21 21 21 20 21 21 20 20 20 20 20 19 20 20 20 20
34 33 32 32 31 30 31 31 30 28 28 27 26 26 26 26 25 25 25 25 24 24 24 23 22 22 21 21 21 21 21 21 20 21 21 21 21 21 20 20 21 20 20 20 20 20 20 19 21
34 34 33 32 31 30 31 31 29 29 28 28 28 27 27 27 27 26 25 25 25 24 23 23 23 23 22 21 21 21 22 22 21 20 19 20 20 19 19 19 20 20 20 20 19 20 19 19 20
34 34 33 32 32 31 31 31 31 29 29 29 28 29 28 28 27 27 26 25 25 25 24 24 23 23 23 22 21 21 21 21 21 20 20 20 20 20 19 19 19 20 19 19 19 19 19 19 20
34 34 34 34 34 32 31 32 31 29 29 29 29 29 29 29 29 28 27 27 26 26 24 24 24 23 22 22 22 21 21 20 19 21 21 21 21 21 19 19 19 19 19 19 20 19 20 19 20
34 34 34 35 35 33 33 33 31 30 29 30 29 30 30 30 30 28 28 27 27 26 25 24 24 24 23 21 21 20 21 20 22 23 22 22 22 22 21 20 19 19 20 19 19 19 19 19 19
33 33 34 34 33 33 32 32 32 31 30 30 30 30 30 30 29 28 27 27 27 27 25 25 26 24 23 22 22 22 22 23 23 23 23 22 22 22 22 22 21 19 19 19 19 19 19 19 19
34 34 34 34 33 32 32 33 31 31 31 30 30 31 30 30 30 28 26 27 27 26 25 25 24 24 23 21 22 22 22 23 24 23 23 23 23 23 22 21 20 20 19 20 20 19 19 19 19
35 34 34 34 35 34 32 35 31 31 30 30 31 31 31 29 29 30 28 26 26 26 25 24 24 22 22 22 21 21 21 21 24 23 23 23 23 22 23 22 21 20 20 20 20 19 20 20 20
35 34 33 33 34 33 33 34 35 29 30 31 31 32 31 28 28 29 25 24 24 24 24 23 22 21 21 21 21 20 20 20 22 23 24 23 22 21 21 22 22 21 20 21 20 20 20 20 20
34 34 32 31 33 34 32 34 36 33 30 30 31 31 30 27 27 25 23 24 24 22 23 23 21 21 22 23 23 24 23 21 21 22 22 22 21 21 21 21 21 22 22 21 21 21 20 20 20
34 36 34 34 34 35 31 32 36 32 30 29 29 30 29 27 25 24 24 24 22 22 22 23 24 22 21 22 24 26 25 20 20 19 20 19 19 20 19 20 21 20 21 21 21 21 21 21 21
35 36 35 32 34 34 30 34 37 30 28 27 27 29 27 26 25 25 25 24 23 21 22 20 19 18 19 19 20 21 23 18 17 17 17 18 18 17 18 18 19 19 20 20 21 21 21 22 21
33 34 34 33 30 33 33 32 33 30 28 27 26 26 27 27 25 25 25 24 22 21 22 20 19 19 19 20 20 19 19 18 17 17 16 16 16 17 18 18 19 18 19 18 18 20 20 20 20
34 33 34 32 32 33 33 31 35 30 29 27 27 26 26 26 25 26 25 23 22 21 20 19 19 18 17 17 19 18 18 18 17 16 16 16 16 16 16 17 17 18 18 16 17 17 17 18 19
33 33 31 33 32 34 34 34 34 31 31 29 27 26 26 25 25 25 23 21 20 20 20 19 18 17 17 16 17 17 16 16 15 15 14 14 14 14 14 14 14 14 15 15 15 15 16 16 16
33 35 35 34 32 31 33 35 29 29 30 28 26 25 25 23 24 23 22 21 20 19 19 18 18 17 16 16 16 15 15 15 15 14 14 14 13 13 13 13 13 14 14 14 14 14 14 15 15
Height
750 752 753 754 762 757 776 777 767 776 775 768 770 774 781 787 789 801 799 801 803 804 803 807 808 810 813 812 812 812 814 816 817 819 821 824 825 827 827 829 829 830 831 832 832 834 834 835 836
752 753 755 753 767 778 779 768 775 770 770 769 773 777 783 794 792 795 800 803 805 806 807 809 811 812 814 814 814 815 817 819 821 823 824 826 828 829 830 830 831 831 832 834 835 836 837 838 840
753 753 753 760 771 781 781 771 774 771 767 769 778 778 785 796 796 798 800 803 806 809 811 812 813 815 816 816 817 818 820 821 823 825 826 827 829 831 831 832 833 834 835 836 836 838 839 840 840
753 753 753 766 778 772 770 771 770 772 771 772 775 788 788 794 796 798 802 805 808 810 813 814 816 817 817 819 821 821 822 823 825 827 828 829 830 831 832 833 835 836 836 836 837 839 841 842 842
753 752 764 776 776 770 765 765 766 772 775 776 775 791 794 796 797 800 803 806 809 812 814 817 818 819 820 822 823 824 825 826 827 828 830 831 832 833 834 834 836 837 838 838 839 840 842 843 843
754 754 775 785 779 772 767 764 766 772 776 778 781 785 796 798 799 803 805 808 811 813 815 818 819 821 822 824 825 826 827 827 828 829 831 832 834 834 834 835 836 838 839 839 840 841 842 843 844
756 760 778 778 781 777 771 763 770 775 778 782 778 791 797 799 801 803 807 810 813 814 816 818 821 822 824 825 826 828 828 828 829 831 831 833 834 836 834 836 837 838 840 840 841 842 843 843 844
750 755 772 773 779 781 768 767 767 771 781 776 778 792 798 797 801 805 808 811 813 815 817 819 821 823 824 826 827 828 829 830 831 832 833 833 834 835 837 837 838 839 840 842 843 844 845 845 846
748 765 776 773 773 776 767 772 768 769 775 778 780 782 787 797 802 805 808 811 814 816 818 820 822 823 825 826 828 829 830 831 832 832 833 835 835 837 838 838 839 840 839 842 844 845 846 846 846
753 768 768 756 758 768 767 769 771 775 778 786 786 787 793 799 803 806 807 809 812 815 818 820 822 824 825 827 829 831 832 832 833 833 834 835 836 837 838 839 840 839 841 842 843 845 846 846 847
754 766 758 758 755 759 769 771 768 774 779 778 788 787 793 799 803 805 808 810 811 814 817 818 821 824 825 827 828 830 832 832 832 833 834 835 835 836 837 838 838 840 840 841 843 844 845 845 845
758 754 755 762 761 763 770 768 774 774 777 772 782 788 792 796 799 801 805 808 812 814 816 818 820 821 821 824 826 829 830 830 831 832 833 834 835 835 836 836 837 838 839 840 841 842 842 842 843
755 755 757 761 761 765 766 773 775 780 777 779 785 790 791 794 797 801 803 805 808 810 813 814 815 815 818 822 822 826 828 829 831 831 832 834 834 834 835 835 835 836 838 839 839 839 839 839 840
752 756 763 763 767 768 773 775 771 782 780 783 786 790 792 794 796 799 800 802 805 808 810 813 814 818 818 821 821 824 826 828 829 830 830 831 832 832 833 833 833 834 834 836 836 836 837 837 837
752 768 766 769 770 774 771 780 781 776 778 784 786 787 790 793 795 796 799 801 805 808 809 811 812 816 817 819 821 823 824 826 828 829 829 830 831 831 831 831 831 830 830 831 833 833 833 833 834
763 766 785 771 769 772 774 791 779 776 778 783 785 786 788 790 793 797 799 801 803 806 807 808 810 812 814 817 819 820 821 823 826 828 829 829 828 829 829 829 827 827 827 827 826 829 829 828 829
770 786 783 782 765 769 776 784 773 775 778 782 785 787 789 790 792 793 795 797 799 801 804 806 808 810 812 814 817 820 822 823 824 828 828 826 825 825 825 825 825 825 824 825 824 824 824 824 823
786 783 779 781 767 767 775 775 770 773 776 780 781 782 785 785 783 784 788 793 796 798 800 803 805 807 810 812 814 817 820 823 823 825 822 821 821 822 821 820 818 820 821 821 821 821 821 820 819
771 778 781 767 757 766 768 768 769 768 774 778 779 779 779 778 777 782 783 782 787 792 795 798 802 804 807 810 812 815 817 819 820 819 819 820 817 814 809 812 813 814 814 817 818 818 817 816 816
774 783 779 767 760 763 770 770 765 763 767 769 772 772 770 772 779 780 778 780 780 786 790 794 797 801 805 808 811 815 816 817 818 817 815 814 810 811 809 809 809 810 810 812 814 814 813 812 813
775 779 777 777 766 763 768 771 771 760 763 765 765 764 769 773 777 777 780 782 782 785 789 792 795 798 804 810 811 814 816 816 817 816 811 809 807 806 805 805 805 806 805 806 805 808 809 808 808
776 762 768 768 771 785 769 786 774 764 765 764 761 762 766 772 773 772 781 784 787 783 787 791 794 800 804 808 811 814 815 814 815 816 813 808 805 804 802 801 800 801 801 800 800 801 803 803 804
765 759 767 768 773 778 779 786 761 771 768 762 757 757 765 771 773 775 780 779 782 784 781 788 792 796 800 804 807 807 812 814 812 815 814 810 805 804 802 800 798 798 798 797 797 796 798 797 798
750 761 770 775 776 791 786 781 764 766 764 757 753 756 763 771 772 775 778 778 782 786 783 783 789 798 800 797 801 799 804 809 812 812 812 810 806 805 802 800 798 796 795 794 793 794 794 793 793
755 761 788 795 794 791 786 788 759 755 755 758 761 757 762 767 773 776 777 782 784 787 786 787 787 794 797 794 794 792 799 809 812 810 810 807 806 805 802 800 797 795 794 792 790 790 789 789 789
756 754 780 813 800 791 786 784 753 753 754 757 756 754 763 767 772 776 778 783 785 790 790 791 795 802 794 793 790 791 791 813 814 813 812 811 807 805 802 800 797 794 792 790 788 786 785 785 785
762 767 753 779 794 791 781 770 749 751 758 761 762 763 764 766 771 774 777 781 785 790 792 794 794 802 797 795 790 798 801 812 813 812 812 809 808 805 803 800 797 795 791 788 785 785 785 783 782
744 747 770 773 800 802 784 785 763 760 759 762 763 764 766 768 772 774 778 781 785 791 793 792 796 801 798 797 796 799 803 807 810 812 809 807 806 805 802 799 795 793 791 790 786 783 781 783 782
756 757 766 760 772 779 786 772 737 748 748 754 762 764 765 768 771 774 779 783 787 790 793 795 800 804 806 803 800 802 805 808 812 812 809 808 808 806 802 798 796 793 791 789 787 784 782 781 779
740 744 745 762 782 777 769 760 743 745 743 748 760 764 767 771 773 777 781 784 788 791 794 798 803 806 806 803 804 804 807 809 812 811 811 810 808 805 802 799 797 794 793 790 788 785 784 782 779
Wind_Speed
15 12 7 1 1 4 5 7 9 13 9 1 5 2 5 5 3 6 10 10 18 20 22 17 18 17 17 18 19 19 18 18 18 17 16 14 12 12 13 14 14 13 13 12 12 12 13 14 14
13 10 2 1 4 10 6 5 7 4 8 15 9 7 5 4 4 10 11 14 17 19 18 17 18 17 16 17 17 17 16 15 15 15 14 12 10 10 13 13 14 14 14 14 13 13 14 14 14
9 1 2 3 3 9 5 7 12 15 11 5 5 9 3 3 6 12 11 18 17 17 16 15 18 18 17 16 15 16 15 15 15 14 13 12 11 10 12 13 13 14 14 13 14 13 13 14 14
3 0 1 5 8 5 4 9 13 10 9 6 10 8 5 6 8 7 19 18 18 16 16 16 17 16 16 16 14 14 14 14 13 12 12 12 11 11 12 12 12 13 13 13 14 13 13 12 11
1 0 4 4 6 3 6 8 6 4 5 7 3 7 9 5 7 21 17 17 17 16 14 15 16 15 15 14 13 12 11 10 10 10 10 10 11 11 12 12 13 13 12 12 13 12 12 11 10
0 1 3 4 4 4 3 3 4 7 7 9 11 11 4 6 18 18 15 16 15 16 15 15 15 14 13 11 10 10 9 8 8 8 8 9 9 10 11 11 12 12 12 12 12 11 11 10 8
2 2 2 1 2 3 1 3 2 6 9 6 11 7 5 11 20 17 15 15 15 15 15 15 13 12 11 10 9 8 8 8 8 7 7 8 9 9 10 10 11 10 10 10 10 10 10 10 8
1 1 1 1 1 2 5 3 7 2 8 10 6 6 8 17 20 17 15 15 14 14 14 15 14 13 11 10 9 9 8 8 7 7 6 7 7 8 8 10 10 9 9 8 8 8 8 7 6
2 1 1 1 1 5 7 4 4 5 11 5 2 7 15 24 20 18 16 14 13 13 13 13 13 11 11 10 9 8 9 9 8 7 6 5 5 4 3 5 6 6 7 7 7 7 7 6 6
1 1 2 1 5 6 7 3 5 5 7 5 9 14 25 23 20 17 18 17 17 16 14 13 12 11 10 8 8 9 8 8 8 9 7 7 6 5 4 4 5 6 6 6 6 6 6 5 6
2 3 1 3 7 13 7 5 2 5 2 6 13 21 22 22 18 16 17 16 18 16 15 15 13 11 10 10 10 9 9 10 11 12 11 9 9 8 5 5 6 8 8 8 8 7 7 7 6
1 6 5 6 6 7 6 6 6 3 4 7 17 21 20 17 18 19 17 15 14 15 16 15 15 14 15 11 11 11 14 14 16 13 15 12 10 10 10 9 10 9 9 9 9 8 9 10 10
2 3 8 9 10 8 8 5 6 8 11 15 17 18 17 16 18 17 14 14 16 18 18 19 19 20 18 11 14 14 16 16 13 13 16 15 13 11 9 10 12 14 11 11 10 11 12 13 11
5 10 12 9 7 7 9 6 2 5 12 14 16 16 14 15 18 16 17 17 18 17 18 18 19 18 19 20 13 12 16 14 12 12 13 17 15 15 14 12 11 13 14 14 13 13 14 15 13
8 10 10 9 6 3 7 3 6 13 13 14 14 13 13 13 16 17 17 17 16 16 15 16 17 16 17 18 19 14 14 12 11 12 12 14 17 18 18 18 17 16 15 15 15 17 16 16 15
4 4 3 8 8 5 3 1 5 13 14 14 13 11 12 13 14 14 14 15 14 16 18 17 16 16 18 17 16 16 16 15 9 7 10 14 18 18 17 18 19 18 17 17 18 18 18 22 22
3 1 7 3 10 7 7 3 10 13 14 13 11 10 10 9 12 14 14 15 15 17 17 18 18 18 17 17 15 14 14 14 12 10 14 16 15 15 18 18 19 21 16 15 15 18 20 21 21
3 1 1 3 9 12 11 10 13 16 15 14 13 12 11 12 14 16 15 13 14 15 15 16 17 18 17 14 15 14 16 10 12 9 9 8 15 17 18 22 24 20 16 17 17 18 17 16 16
2 3 5 7 4 10 17 12 13 17 15 14 13 13 13 14 13 12 14 16 15 14 15 16 16 19 16 12 10 8 10 10 11 8 9 10 9 12 13 21 21 21 21 19 18 17 16 15 19
1 2 4 6 7 9 3 12 11 17 19 16 15 15 16 13 10 8 13 14 14 15 16 15 16 15 16 10 10 7 6 5 8 11 12 11 16 17 14 20 20 17 17 16 18 18 15 16 16
3 3 3 3 2 2 3 4 8 13 13 14 15 14 12 11 10 10 7 7 8 10 11 12 13 12 9 7 6 7 10 12 14 13 14 12 15 16 19 20 21 17 15 8 19 22 21 14 10
8 7 4 3 5 4 2 3 3 8 14 16 17 16 13 11 12 11 2 8 6 4 4 3 4 1 0 2 5 7 9 14 19 18 18 11 8 7 8 10 9 9 15 18 18 19 22 20 14
5 2 3 2 2 2 5 3 0 2 9 16 18 16 12 12 12 9 9 9 5 3 11 9 10 13 13 15 12 13 15 16 18 15 8 4 3 3 3 5 5 6 9 13 14 15 19 21 16
2 3 3 3 2 4 2 6 4 4 2 5 11 13 14 15 13 8 10 8 6 10 16 18 18 18 15 15 10 9 16 24 15 6 3 2 3 3 5 4 4 4 3 5 8 9 11 15 18
4 4 3 4 3 1 3 5 8 4 4 6 5 7 15 16 12 10 5 5 10 8 12 12 19 17 12 8 7 5 8 14 3 2 4 4 5 5 7 6 5 5 4 3 4 6 6 9 13
5 7 5 5 3 1 2 4 2 2 3 5 3 7 14 15 12 10 8 6 8 9 8 9 6 11 16 16 15 11 12 2 5 7 6 6 6 8 7 7 6 6 6 5 5 6 6 7 9
6 5 1 4 1 3 2 4 10 7 2 3 7 11 13 12 12 11 9 9 9 9 7 5 11 12 17 21 24 21 19 9 8 7 5 7 7 7 9 8 9 9 8 7 6 5 6 8 8
4 10 4 1 5 5 3 3 6 6 8 5 6 9 9 10 11 9 7 5 5 6 7 9 13 14 17 18 21 19 15 11 8 6 9 9 10 9 10 10 9 10 10 10 9 7 6 8 6
4 4 3 2 1 5 5 4 3 4 12 11 9 9 10 9 8 7 6 6 7 9 13 17 16 16 14 17 20 17 14 11 8 9 10 10 9 9 11 12 11 11 10 11 10 11 10 11 11
2 2 6 5 5 1 3 4 1 1 10 12 11 11 10 8 9 9 10 10 10 10 14 16 15 14 14 16 16 16 13 11 9 9 9 8 10 12 10 10 11 10 10 12 13 13 13 13 14
Wind_Direction
136 135 140 240 4 55 48 67 101 114 122 135 122 85 95 47 14 89 137 129 136 141 139 145 139 131 136 139 134 130 129 133 139 139 132 132 130 132 128 125 122 117 119 114 111 108 108 108 108
140 137 172 302 55 62 51 36 113 88 117 118 100 104 60 72 69 116 128 140 143 145 146 145 135 134 135 134 133 129 127 132 135 133 134 130 130 134 133 127 126 121 122 120 120 116 113 113 107
139 94 319 59 44 50 58 57 99 112 127 131 110 58 60 72 114 136 138 143 144 146 147 144 137 136 130 124 127 130 134 136 137 138 137 138 138 140 132 134 130 127 122 122 117 117 117 116 116
147 198 102 54 57 49 57 90 126 118 97 60 110 74 88 103 135 144 143 145 145 144 146 148 142 135 130 130 134 134 140 142 143 141 139 136 147 144 136 139 131 133 133 128 125 124 124 123 119
245 260 50 58 51 54 80 112 103 78 102 115 108 106 108 164 127 141 142 146 147 145 144 146 149 144 141 143 142 141 142 147 147 144 144 147 147 152 147 148 143 142 136 133 130 135 136 134 127
234 334 41 52 59 69 74 104 65 86 110 118 109 117 108 137 141 145 143 147 149 146 146 153 160 155 153 150 149 150 150 152 154 155 155 157 156 162 156 154 152 143 150 140 139 142 147 148 142
331 76 55 37 103 135 169 146 86 103 117 101 135 104 114 156 152 150 146 150 151 154 153 157 162 165 162 162 163 162 166 171 170 162 161 168 162 167 166 158 156 157 152 149 145 150 155 158 162
284 81 41 25 188 61 132 100 109 96 88 111 135 156 161 165 157 152 153 158 163 163 165 164 166 170 172 179 183 182 178 184 171 176 167 163 162 174 176 172 164 163 160 160 157 155 166 166 170
135 63 4 118 186 132 145 131 64 103 128 96 104 145 139 153 154 154 156 162 170 175 175 171 173 182 185 187 193 189 196 188 191 185 180 177 182 174 179 175 181 180 171 164 174 184 186 192 204
266 93 227 53 126 139 155 124 123 155 137 88 99 114 139 154 161 165 171 174 180 181 181 180 185 188 194 197 199 203 204 201 201 195 191 204 194 192 200 213 218 215 197 197 200 207 214 217 224
53 8 129 100 113 134 127 116 117 149 218 166 161 146 153 161 170 177 183 186 185 183 185 190 192 194 199 207 210 209 207 206 213 211 212 217 228 228 227 247 234 229 209 210 216 222 223 232 234
339 63 77 118 117 121 126 117 111 31 33 135 151 153 157 170 180 182 186 187 187 192 196 196 197 199 207 210 229 228 216 210 218 219 224 233 241 244 255 256 247 240 237 234 230 230 234 241 248
349 88 72 115 112 106 118 93 96 83 97 123 142 160 171 176 182 188 189 193 193 198 199 206 201 207 206 184 228 226 230 226 223 225 233 237 243 252 256 263 256 252 250 249 246 243 246 254 265
93 89 109 128 117 129 126 124 169 121 130 139 158 170 180 184 186 188 196 201 200 200 204 208 216 216 214 205 224 221 230 237 235 236 235 242 247 255 258 264 261 256 260 255 256 258 262 271 268
137 98 109 134 142 119 151 73 128 149 158 159 172 181 187 199 197 205 206 208 212 207 208 211 215 215 221 218 223 229 237 236 244 255 262 264 264 267 268 267 272 267 265 262 262 261 264 270 266
97 107 179 183 169 175 312 169 159 166 172 176 183 188 194 205 211 220 223 225 220 219 213 217 220 221 221 226 230 231 235 237 241 255 287 296 284 274 274 272 267 267 264 260 258 255 257 256 264
47 167 222 162 211 166 212 171 186 182 192 183 186 205 214 211 221 223 225 227 224 226 223 221 226 229 229 230 235 241 246 244 241 273 299 314 303 289 280 276 275 272 261 258 256 258 256 261 262
147 248 215 256 206 215 206 217 180 186 201 199 194 200 213 222 225 218 220 230 241 235 231 230 231 236 237 237 245 252 253 250 258 293 311 308 313 312 311 292 276 268 263 260 255 255 258 254 260
178 265 326 286 295 216 226 234 192 191 201 207 207 200 215 225 228 229 221 207 224 237 235 234 236 242 235 235 235 243 249 249 260 259 263 285 279 329 295 284 279 263 255 260 259 256 257 258 261
204 339 292 286 327 207 250 234 215 200 206 206 208 210 212 215 221 229 232 225 206 226 232 235 243 243 245 232 250 270 288 291 279 276 280 283 290 289 280 264 275 276 268 262 257 248 246 253 265
190 223 299 313 344 115 196 235 209 222 211 207 218 224 225 218 207 210 195 206 212 226 241 238 240 245 251 262 266 296 310 309 311 302 295 301 290 286 281 272 271 271 268 291 280 253 234 236 234
276 201 266 301 331 330 321 305 229 231 219 216 220 217 215 198 203 222 81 28 0 120 149 204 249 153 314 342 7 347 326 308 319 312 311 309 311 325 320 305 289 273 267 251 262 253 236 236 241
247 173 321 29 223 242 177 256 170 300 236 226 221 219 200 180 183 163 135 120 81 148 123 114 119 111 105 89 76 52 5 314 314 307 307 331 22 4 344 336 331 291 280 280 270 246 237 237 232
140 165 87 84 161 224 115 233 269 221 227 257 230 211 185 165 164 155 136 124 95 86 99 117 104 113 122 114 86 68 354 346 311 308 302 329 33 26 3 1 352 349 322 276 272 282 256 239 235
189 204 248 242 199 294 52 212 265 213 253 285 299 222 173 171 169 155 140 127 97 110 118 109 118 133 152 128 162 158 298 359 340 356 35 60 55 43 18 25 17 358 334 313 290 288 277 265 245
186 221 206 246 223 351 140 234 280 185 348 358 343 162 156 171 168 163 171 139 120 133 133 110 104 115 121 107 98 103 124 43 54 47 41 37 35 19 14 12 10 4 354 332 299 293 294 290 275
159 197 100 141 119 232 172 263 259 234 135 62 111 147 165 165 167 177 181 172 159 163 168 135 88 114 114 102 94 96 97 105 78 55 54 39 27 10 354 353 348 343 347 350 344 330 322 304 285
246 144 166 208 196 234 190 266 262 183 183 161 156 140 147 153 163 169 160 145 150 121 92 114 114 100 98 97 99 96 92 80 63 52 46 34 18 6 359 357 350 341 338 342 342 345 342 337 321
155 174 65 122 276 244 243 231 226 191 173 169 153 146 153 159 161 162 135 117 109 105 109 112 109 107 101 99 95 93 86 75 63 51 42 34 21 15 16 12 5 1 0 357 351 344 339 334 326
241 223 214 234 184 215 292 248 82 160 168 152 145 136 127 125 140 135 125 128 117 102 123 119 120 112 106 96 90 81 76 72 61 54 48 40 30 21 20 18 17 18 12 4 359 353 344 337 330